Weather History for KIMT - February, 2014

Change the Weather History Date:

Tuesday, February 11, 2014

  Actual Average Record
Temperature  
Mean Temperature -3 °F -  
Max Temperature 16 °F 26 °F 42 °F (1999)
Min Temperature -22 °F 4 °F -22 °F (2014)
Degree Days  
Heating Degree Days 68    
Moisture  
Dew Point -13 °F    
Average Humidity 62    
Maximum Humidity 87    
Minimum Humidity 41    
Precipitation  
Precipitation 0.00 in - - ()
Sea Level Pressure  
Sea Level Pressure 30.39 in    
Wind  
Wind Speed 3 mph (South)    
Max Wind Speed 13 mph    
Max Gust Speed -    
Visibility 10 miles    
Events      
Averages and records for this station are not official NWS values.
T = Trace of Precipitation, MM = Missing Value Source: NWS Daily Summary

Daily Weather History Graph

Daily Weather History Graph

Search for Another Location

Airport or City:

Trip Planner

Search our weather history database for the weather conditions in past years. The results will help you decide how hot, cold, wet, or windy it might be!

Date:

Astronomy

Feb. 11, 2014 Rise Set
Actual Time 7:00 AM CST 5:13 PM CST
Civil Twilight 6:29 AM CST 5:44 PM CST
Nautical Twilight 5:54 AM CST 6:19 PM CST
Astronomical Twilight 5:20 AM CST 6:53 PM CST
Moon 2:29 PM CST (2/11) 4:42 AM CST (2/11)
Length of Visible Light 11h 14m
Length of Day
10h 12m
Waxing Gibbous, 91% of the Moon is Illuminated
Feb 11
Waxing Gibbous
Feb 14
Full
Feb 22
Last Quarter
Mar 1
New
Mar 8
First Quarter

Hourly Weather History & Observations

Time (CST) Temp. Windchill Dew Point Humidity Pressure Visibility Wind Dir Wind Speed Gust Speed Precip Events Conditions
12:54 AM -17.0 °F - -23.1 °F 74% 30.46 in 10.0 mi Calm Calm - N/A   Clear
1:54 AM -18.0 °F - -22.0 °F 82% 30.47 in 10.0 mi Calm Calm - N/A   Clear
2:54 AM -20.9 °F - -27.0 °F 73% 30.47 in 10.0 mi Calm Calm - N/A   Clear
3:54 AM -20.9 °F - -27.0 °F 73% 30.48 in 10.0 mi Calm Calm - N/A   Clear
4:54 AM -20.9 °F - -27.0 °F 73% 30.48 in 10.0 mi Calm Calm - N/A   Clear
5:54 AM -22.0 °F - -29.0 °F 70% 30.50 in 10.0 mi Calm Calm - N/A   Clear
6:54 AM -22.0 °F - -27.9 °F 74% 30.51 in 10.0 mi Calm Calm - N/A   Clear
7:54 AM -20.0 °F - -26.0 °F 74% 30.50 in 10.0 mi Calm Calm - N/A   Clear
8:54 AM -9.0 °F - -11.9 °F 87% 30.49 in 10.0 mi Calm Calm - N/A   Clear
9:54 AM -2.0 °F - -9.9 °F 69% 30.48 in 10.0 mi Calm Calm - N/A   Clear
10:54 AM 6.1 °F -4.3 °F -7.1 °F 55% 30.46 in 10.0 mi SSE 5.8 mph - N/A   Clear
11:54 AM 10.0 °F -1.9 °F -5.1 °F 51% 30.43 in 10.0 mi SSW 8.1 mph - N/A   Clear
12:54 PM 12.0 °F 1.5 °F -5.1 °F 46% 30.40 in 10.0 mi South 6.9 mph - N/A   Clear
1:54 PM 15.1 °F 4.2 °F -4.0 °F 43% 30.36 in 10.0 mi South 8.1 mph - N/A   Clear
2:54 PM 16.0 °F 2.3 °F -2.9 °F 43% 30.34 in 10.0 mi South 12.7 mph - N/A   Clear
3:54 PM 16.0 °F 3.6 °F -4.0 °F 41% 30.32 in 10.0 mi SSE 10.4 mph - N/A   Clear
4:54 PM 12.0 °F -2.7 °F -5.1 °F 46% 30.32 in 10.0 mi SSE 12.7 mph - N/A   Clear
5:54 PM 8.1 °F -7.0 °F -6.0 °F 53% 30.32 in 10.0 mi SSE 11.5 mph - N/A   Clear
6:54 PM 6.1 °F -7.8 °F -7.1 °F 55% 30.32 in 10.0 mi SSE 9.2 mph - N/A   Clear
7:54 PM 5.0 °F -10.8 °F -7.1 °F 58% 30.29 in 10.0 mi SSE 11.5 mph - N/A   Clear
8:54 PM 3.9 °F -11.3 °F -7.1 °F 60% 30.27 in 10.0 mi South 10.4 mph - N/A   Clear
9:54 PM 3.9 °F -10.4 °F -7.1 °F 60% 30.26 in 10.0 mi South 9.2 mph - N/A   Clear
10:54 PM 3.9 °F -11.3 °F -6.0 °F 64% 30.23 in 10.0 mi South 10.4 mph - N/A   Clear
11:54 PM 3.9 °F -11.3 °F -6.0 °F 64% 30.21 in 10.0 mi South 10.4 mph - N/A   Clear